Weather History for Greenwood, MS

Change the Weather History Date:

Saturday, July 6, 2013

  Actual Average Record
Temperature  
Mean Temperature 78 °F 81 °F  
Max Temperature 89 °F 92 °F 101 °F (1954)
Min Temperature 67 °F 71 °F 59 °F (1972)
Degree Days  
Heating Degree Days 0 0  
Month to date heating degree days 0 0  
Since 1 June heating degree days 0 0  
Since 1 July heating degree days 0 0  
Cooling Degree Days 13 16  
Month to date cooling degree days 62 96  
Year to date cooling degree days 757 839  
Since 1 June cooling degree days 481 509  
Growing Degree Days 28 (Base 50)    
Moisture  
Dew Point 70 °F    
Average Humidity 78    
Maximum Humidity 100    
Minimum Humidity 55    
Precipitation  
Precipitation 0.01 in 0.13 in 1.12 in (2007)
Month to date precipitation 0.01 0.79  
Year to date precipitation 33.46 28.43  
Sea Level Pressure  
Sea Level Pressure 30.02 in    
Wind  
Wind Speed 5 mph (SE)    
Max Wind Speed 13 mph    
Max Gust Speed 17 mph    
Visibility 10 miles    
Events      
T = Trace of Precipitation, MM = Missing Value Source: NWS Daily Summary

Daily Weather History Graph

Daily Weather History Graph

Search for Another Location

Airport:

Trip Planner

Search our weather history database for the weather conditions in past years. The results will help you decide how hot, cold, wet, or windy it might be!

Date:

Astronomy

Jul. 06, 2013 Rise Set
Actual Time 5:56 AM CDT 8:13 PM CDT
Civil Twilight 5:27 AM CDT 8:42 PM CDT
Nautical Twilight 4:52 AM CDT 9:17 PM CDT
Astronomical Twilight 4:14 AM CDT 9:55 PM CDT
Moon 4:40 AM CDT (7/6) 6:57 PM CDT (7/6)
Length of Visible Light 15h 14m
Length of Day
14h 17m
Waning Crescent, 2% of the Moon is Illuminated
Jul 6
Waning Crescent
Jul 8
New
Jul 15
First Quarter
Jul 22
Full
Jul 29
Last Quarter

Hourly Weather History & Observations

Time (CDT) Temp. Heat Index Dew Point Humidity Pressure Visibility Wind Dir Wind Speed Gust Speed Precip Events Conditions
12:53 AM 73.0 °F - 71.1 °F 93% 30.01 in 10.0 mi South 5.8 mph - N/A   Clear
1:34 AM 73.4 °F - 71.6 °F 94% 30.02 in 10.0 mi SSE 6.9 mph - N/A   Partly Cloudy
1:53 AM 72.0 °F - 71.1 °F 97% 30.02 in 10.0 mi South 4.6 mph - N/A   Partly Cloudy
2:15 AM 71.6 °F - 69.8 °F 94% 30.02 in 9.0 mi South 3.5 mph - N/A   Mostly Cloudy
2:49 AM 71.6 °F - 69.8 °F 94% 30.02 in 10.0 mi South 4.6 mph - N/A   Partly Cloudy
2:53 AM 72.0 °F - 70.0 °F 93% 30.02 in 10.0 mi South 4.6 mph - N/A   Partly Cloudy
3:53 AM 71.1 °F - 69.1 °F 93% 30.02 in 10.0 mi Calm Calm - N/A   Clear
4:53 AM 69.1 °F - 68.0 °F 96% 30.02 in 10.0 mi Calm Calm - N/A   Clear
5:53 AM 68.0 °F - 66.9 °F 96% 30.04 in 7.0 mi Calm Calm - N/A   Clear
6:53 AM 71.1 °F - 69.1 °F 93% 30.05 in 10.0 mi ENE 3.5 mph - N/A   Clear
7:50 AM 73.4 °F - 69.8 °F 88% 30.05 in 10.0 mi Calm Calm - N/A   Mostly Cloudy
7:53 AM 73.9 °F - 69.1 °F 85% 30.05 in 10.0 mi Calm Calm - N/A   Mostly Cloudy
8:53 AM 75.0 °F - 70.0 °F 84% 30.06 in 10.0 mi SE 4.6 mph - N/A   Overcast
9:53 AM 79.0 °F - 70.0 °F 74% 30.05 in 10.0 mi SE 6.9 mph - N/A   Overcast
10:15 AM 80.6 °F 83.9 °F 69.8 °F 70% 30.06 in 10.0 mi ESE 5.8 mph - N/A   Scattered Clouds
10:53 AM 81.0 °F 84.1 °F 69.1 °F 67% 30.06 in 10.0 mi SE 3.5 mph - N/A   Mostly Cloudy
11:53 AM 82.9 °F 86.5 °F 69.1 °F 63% 30.05 in 10.0 mi Variable 4.6 mph - N/A   Scattered Clouds
12:53 PM 84.0 °F 88.4 °F 70.0 °F 63% 30.04 in 10.0 mi ESE 9.2 mph - N/A   Overcast
1:53 PM 84.0 °F 87.0 °F 68.0 °F 58% 30.02 in 10.0 mi ESE 10.4 mph - N/A   Mostly Cloudy
2:53 PM 86.0 °F 90.1 °F 69.1 °F 57% 30.00 in 10.0 mi Variable 5.8 mph - N/A   Mostly Cloudy
3:53 PM 87.1 °F 91.3 °F 69.1 °F 55% 29.99 in 10.0 mi East 9.2 mph - N/A   Mostly Cloudy
4:53 PM 86.0 °F 90.7 °F 70.0 °F 59% 29.97 in 10.0 mi ESE 8.1 mph - N/A   Mostly Cloudy
5:53 PM 84.9 °F 88.8 °F 69.1 °F 59% 29.97 in 10.0 mi ESE 5.8 mph - N/A   Scattered Clouds
6:53 PM 82.0 °F 86.7 °F 72.0 °F 71% 29.98 in 10.0 mi East 6.9 mph - 0.01 in   Overcast
7:53 PM 81.0 °F 85.2 °F 72.0 °F 74% 29.99 in 10.0 mi ESE 9.2 mph - N/A   Mostly Cloudy
8:53 PM 78.1 °F - 71.1 °F 79% 30.00 in 10.0 mi SE 8.1 mph - N/A   Mostly Cloudy
9:53 PM 78.1 °F - 71.1 °F 79% 30.02 in 10.0 mi SSE 4.6 mph - N/A   Overcast
10:53 PM 75.9 °F - 71.1 °F 85% 30.03 in 10.0 mi SSE 8.1 mph - N/A   Partly Cloudy
11:53 PM 75.0 °F - 71.1 °F 87% 30.04 in 10.0 mi SSE 6.9 mph - N/A   Partly Cloudy